This is the latest recevied weather packets stored in our database for station/object KD9JJA. If no packets are shown the sender has not sent any weather packets the latest 10 day(s).
| Time | Temp. | Humidity | Pressure | Rain* | Wind** | Luminosity | Snow |
|---|---|---|---|---|---|---|---|
| 1777378785 | 16.11° C | 94% | 1015.3 hPa | 0 mm | - | 16 W/m² | - |
| 1777378183 | 16.11° C | 94% | 1014.9 hPa | 0 mm | - | 7 W/m² | - |
| 1777377881 | 16.11° C | 95% | 1014.7 hPa | 0 mm | - | 9 W/m² | - |
| 1777377581 | 16.11° C | 95% | 1014.6 hPa | 0 mm | - | 7 W/m² | - |
| 1777376974 | 16.11° C | 96% | 1014.5 hPa | 0 mm | - | 17 W/m² | - |
| 1777376368 | 16.11° C | 96% | 1014.3 hPa | 0 mm | - | 2 W/m² | - |
| 1777376068 | 16.11° C | 98% | 1014.1 hPa | 0 mm | - | 2 W/m² | - |
| 1777375763 | 16.11° C | 99% | 1013.7 hPa | 0 mm | - | 0 W/m² | - |
| 1777375458 | 16.67° C | 99% | 1013.9 hPa | 0 mm | - | 0 W/m² | - |
| 1777375155 | 16.11° C | 99% | 1013.8 hPa | 0 mm | - | 1 W/m² | - |
| 1777373944 | 16.67° C | 99% | 1013.3 hPa | 0 mm | - | 0 W/m² | - |
| 1777373641 | 16.67° C | 99% | 1013.3 hPa | 0 mm | - | 0 W/m² | - |
| 1777373337 | 16.67° C | 99% | 1013 hPa | 0 mm | - | 0 W/m² | - |
| 1777372728 | 16.11° C | 99% | 1013 hPa | 0 mm | - | 0 W/m² | - |
| 1777372427 | 16.11° C | 99% | 1013.1 hPa | 0 mm | - | 0 W/m² | - |
| 1777372126 | 16.11° C | 99% | 1013 hPa | 0 mm | - | 0 W/m² | - |
| 1777371822 | 16.11° C | 99% | 1013 hPa | 0 mm | - | 0 W/m² | - |
| 1777371518 | 16.11° C | 99% | 1012.9 hPa | 0 mm | - | 0 W/m² | - |
| 1777371215 | 16.11° C | 99% | 1012.6 hPa | 0 mm | - | 0 W/m² | - |
| 1777370911 | 16.11° C | 99% | 1012.7 hPa | 0 mm | - | 0 W/m² | - |
| 1777370304 | 16.11° C | 99% | 1012.7 hPa | 0 mm | - | 0 W/m² | - |
| 1777369696 | 16.11° C | 99% | 1012.5 hPa | 0 mm | - | 0 W/m² | - |
| 1777369091 | 16.11° C | 99% | 1012.5 hPa | 0 mm | - | 0 W/m² | - |
| 1777368789 | 16.11° C | 99% | 1012.4 hPa | 0 mm | - | 0 W/m² | - |
| 1777368484 | 16.11° C | 99% | 1012.7 hPa | 0 mm | - | 0 W/m² | - |
* Rain latest hour (hover to see other rain measurements)
** Current wind speed in m/s (hover to see current wind gust speed)